Regional Weather Roundup
Issued by NWS

Home | Current Version | Previous Version | Text Only | Print | Product List | Glossary Off
Versions: 1 2 3 4 5 6 7 8 9 10 11 12 13 14 15 16 17 18 19 20 21 22 23 24 25 26 27

000
ASUS45 KBOU 220307
RWRCO

WEATHER ROUNDUP FOR COLORADO
NATIONAL WEATHER SERVICE DENVER/BOULDER CO
800 PM MST TUE FEB 21 2017

NOTE: "FAIR" INDICATES FEW OR NO CLOUDS BELOW 12000 FEET WITH NO
SIGNIFICANT WEATHER AND/OR OBSTRUCTIONS TO VISIBILITY.

COZ001>005-013-030-031-220400-
...NORTHWEST COLORADO...

CITY           SKY/WX    TMP DP  RH WIND       PRES   REMARKS
CRAIG          FAIR      49  29  46 SW28G41   29.94F
HAYDEN         FAIR      45  25  45 SW22G31   29.94F
MEEKER         FAIR      48  32  53 S18G28    30.00F
MOUNT WERNER   NOT AVBL
STEAMBOAT SPGS FAIR      43  24  46 SW7       29.99S
WALDEN         NOT AVBL
$$

COZ006>008-011-220400-
...WEST CENTRAL VALLEYS...

CITY           SKY/WX    TMP DP  RH WIND       PRES   REMARKS
GRAND JUNCTION FAIR      52  36  54 SE7       30.04F
MONTROSE       FAIR      54  30  40 S9        30.11F
EAGLE          CLEAR     50  27  40 SW17G23   30.05F
RIFLE          FAIR      48  34  58 NE3       30.03F
DELTA          FAIR      56  33  40 NE10      30.09F
NUCLA          FAIR      54  32  43 S14       30.15F
$$

COZ017>023-064>068-220400-
...SOUTHWEST COLORADO...

CITY           SKY/WX    TMP DP  RH WIND       PRES   REMARKS
DURANGO        MOCLDY    45  32  60 N9        30.25S
CORTEZ         CLOUDY    52  36  54 S5        30.20F
PAGOSA SPRINGS FAIR      39  29  68 CALM      30.28F
TELLURIDE      CLOUDY    43  23  45 S8G24     30.29F
WOLF CREEK PAS CLOUDY    27  27 100 S18G26    30.39F WCI  13
$$

COZ009-010-012-014-032>034-037-058>063-220400-
...CENTRAL COLORADO...

CITY           SKY/WX    TMP DP  RH WIND       PRES   REMARKS
ASPEN          MOCLDY    47  19  33 W12G18    30.10F
BUENA VISTA    MOCLDY    46  12  26 SE5G13    30.15F
COPPER MTN     FAIR      34  14  44 W17G43    30.22S HAZE    WCI  23
BERTHOUD PASS  FAIR      25  14  63 W45G61    30.14F WCI   5
COTTONWOOD PAS CLOUDY    41  10  28 S5        30.20F
GUNNISON       FAIR      32  26  78 CALM      30.20
KREMMLING      FAIR      50  27  40 SW23G37   30.03F
LEADVILLE      FAIR      33  17  51 S13       30.17F WCI  24
MONARCH PASS   CLOUDY    27  18  69 SW33G44   30.38S WCI   9
SALIDA         CLOUDY    51  14  23 W10G18    30.25F
SUNLIGHT       NOT AVBL
WILKERSON PASS FAIR      32   9  37 SW16G23   30.23F WCI  21
$$

COZ069>075-220400-
...SAN LUIS VALLEY/SANGRE DE CRISTO MOUNTAINS...

CITY           SKY/WX    TMP DP  RH WIND       PRES   REMARKS
ALAMOSA        FAIR      42  28  57 SW8       30.23S
LA VETA PASS   FAIR      34  18  51 N13G22    30.31S WCI  25
SAGUACHE       FAIR      41  30  65 CALM      30.21F
$$

COZ035-036-038>040-220400-
...NORTHERN COLORADO FRONT RANGE...

CITY           SKY/WX    TMP DP  RH WIND       PRES   REMARKS
DENVER INTL AP FAIR      57  10  15 SW17      29.94F
DMNS CITY PARK   N/A     60   8  12 SE9       29.94F
AURORA         MOCLDY    55  11  17 S18       29.96F
FRONT RANGE AP MOCLDY    55  10  16 S15G25    29.95F
ERIE MUNI ARPT FAIR      57   3  11 S7        29.92S
BOULDER MUN AP FAIR      61  10  13 S10G20    29.91F
CENTENNIAL     MOCLDY    56   9  15 S14       29.98F
BROOMFIELD     PTCLDY    59   9  13 S14       29.95F
FORT COLLINS   FAIR      58  16  19 W13       29.90F
LONGMONT       FAIR      51  13  22 W3        29.93S
$$

COZ041-046-047-076>085-087-088-220400-
...PIKES PEAK/PALMER DIVIDE AND SOUTHERN FOOTHILLS...

CITY           SKY/WX    TMP DP  RH WIND       PRES   REMARKS
COLO. SPRINGS  MOCLDY    57   2  11 W16G23    30.08F
A. F. ACADEMY  FAIR      56   3  12 SW17G23   30.08F
SCHRIEVER AFB  FAIR      56   3  11 W22G31    30.08F
ELLICOTT       FAIR     N/A N/A N/A W17       30.06S
FALCON         FAIR      51   3  14 SW13G18   30.10F
FORT CARSON    FAIR      60  -2   8 W31G37    30.05F
LIMON          FAIR      51   7  16 SW8       29.99F
MONUMENT HILL  FAIR      52  10  19 SW25G33   30.06F
TRINIDAD       FAIR      50  10  20 W9        30.09S
$$

COZ042>045-048>051-090-091-220400-
...NORTHEAST COLORADO...

CITY           SKY/WX    TMP DP  RH WIND       PRES   REMARKS
GREELEY ARPT   NOT AVBL
AKRON          FAIR      52  16  24 SW13      29.89F
BURLINGTON     FAIR      55  19  24 SW12      29.92F
WRAY           NOT AVBL
STERLING       NOT AVBL
HOLYOKE        FAIR      48  16  27 SW6       29.85F
FORT MORGAN    FAIR      48  15  26 W5        29.89F
$$

COZ086-089-092>099-220400-
...SOUTHEAST COLORADO...

CITY           SKY/WX    TMP DP  RH WIND       PRES   REMARKS
PUEBLO         FAIR      56  17  21 W10       30.01R
LA JUNTA       FAIR      54  11  18 NW9       29.98S
LAMAR          FAIR      49  16  26 S10       29.94R
SPRINGFIELD      N/A     52  19  27 CALM      30.00S
$$




USA.gov is the U.S. government's official web portal to all federal, state and local government web resources and services.